Weather History for KSPS - January, 2013

Change the Weather History Date:

Thursday, January 24, 2013

  Actual Average Record
Temperature  
Mean Temperature 44 °F 42 °F  
Max Temperature 52 °F 55 °F 85 °F (1950)
Min Temperature 36 °F 30 °F 5 °F (1963)
Degree Days  
Heating Degree Days 21 23  
Month to date heating degree days 556 560  
Since 1 July heating degree days 1601 1757  
Moisture  
Dew Point 39 °F    
Average Humidity 77    
Maximum Humidity 100    
Minimum Humidity 54    
Precipitation  
Precipitation 0.00 in 0.04 in 0.94 in (2012)
Month to date precipitation 0.45 0.86  
Year to date precipitation 0.45 0.86  
Snow  
Snow 0.00 in 0.00 in - ()
Month to date snowfall T 1.1  
Since 1 July snowfall 3.5 2.4  
Snow Depth -    
Sea Level Pressure  
Sea Level Pressure 30.14 in    
Wind  
Wind Speed 7 mph (North)    
Max Wind Speed 17 mph    
Max Gust Speed 20 mph    
Visibility 5 miles    
Events Fog    
T = Trace of Precipitation, MM = Missing Value Source: NWS Daily Summary

Daily Weather History Graph

Daily Weather History Graph

Search for Another Location

Airport or City:

Trip Planner

Search our weather history database for the weather conditions in past years. The results will help you decide how hot, cold, wet, or windy it might be!

Date:

Astronomy

Jan. 24, 2013 Rise Set
Actual Time 7:35 AM CST 5:57 PM CST
Civil Twilight 7:09 AM CST 6:23 PM CST
Nautical Twilight 6:38 AM CST 6:53 PM CST
Astronomical Twilight 6:09 AM CST 7:23 PM CST
Moon 4:01 PM CST (1/24) 5:32 AM CST (1/24)
Length of Visible Light 11h 14m
Length of Day
10h 21m
Waxing Gibbous, 94% of the Moon is Illuminated
Jan 24
Waxing Gibbous
Jan 26
Full
Feb 3
Last Quarter
Feb 10
New
Feb 17
First Quarter

Hourly Weather History & Observations

Time (CST) Temp. Windchill Dew Point Humidity Pressure Visibility Wind Dir Wind Speed Gust Speed Precip Events Conditions
12:52 AM 48.9 °F - 45.0 °F 86% 30.09 in 10.0 mi South 6.9 mph - N/A   Clear
1:52 AM 50.0 °F - 46.0 °F 86% 30.09 in 10.0 mi Calm Calm - N/A   Clear
2:52 AM 45.0 °F 41.2 °F 44.1 °F 97% 30.10 in 8.0 mi South 6.9 mph - N/A   Clear
3:52 AM 43.0 °F 39.5 °F 42.1 °F 97% 30.11 in 4.0 mi SSW 5.8 mph - N/A   Clear
4:52 AM 46.0 °F 44.8 °F 43.0 °F 89% 30.10 in 9.0 mi WSW 3.5 mph - N/A   Scattered Clouds
5:52 AM 37.9 °F 35.5 °F 37.0 °F 97% 30.12 in 7.0 mi NNW 3.5 mph - N/A   Scattered Clouds
6:19 AM 37.4 °F 32.1 °F 35.6 °F 93% 30.13 in 2.0 mi NNW 6.9 mph - N/A   Mostly Cloudy
6:26 AM 35.6 °F 30.7 °F 35.6 °F 100% 30.14 in 1.0 mi NNW 5.8 mph - N/A   Mostly Cloudy
6:39 AM 37.4 °F 33.8 °F 37.4 °F 100% 30.14 in 0.2 mi NNW 4.6 mph - N/A Fog Fog
6:52 AM 37.0 °F 33.3 °F 37.0 °F 100% 30.14 in 0.2 mi NNW 4.6 mph - N/A Fog Fog
7:52 AM 39.0 °F 35.7 °F 39.0 °F 100% 30.14 in 0.8 mi North 4.6 mph - N/A   Mist
8:10 AM 41.0 °F 37.1 °F 41.0 °F 100% 30.14 in 0.2 mi NNE 5.8 mph - N/A Fog Fog
8:52 AM 43.0 °F 41.3 °F 43.0 °F 100% 30.14 in 0.2 mi East 3.5 mph - N/A Fog Fog
9:52 AM 45.0 °F 40.6 °F 45.0 °F 100% 30.18 in 0.2 mi NE 8.1 mph - N/A Fog Fog
10:08 AM 46.4 °F 41.9 °F 46.4 °F 100% 30.18 in 1.5 mi North 9.2 mph - N/A   Overcast
10:24 AM 46.4 °F 41.5 °F 46.4 °F 100% 30.18 in 2.0 mi North 10.4 mph - N/A   Overcast
10:34 AM 46.4 °F 41.5 °F 46.4 °F 100% 30.18 in 1.5 mi North 10.4 mph - N/A   Overcast
10:52 AM 46.0 °F 42.5 °F 46.0 °F 100% 30.18 in 2.5 mi North 6.9 mph - N/A   Overcast
11:21 AM 44.6 °F 37.2 °F 44.6 °F 100% 30.20 in 3.0 mi NNW 17.3 mph - N/A   Overcast
11:52 AM 44.1 °F 37.1 °F 42.1 °F 93% 30.19 in 3.0 mi North 15.0 mph - N/A   Overcast
12:15 PM 46.4 °F 40.1 °F 39.2 °F 76% 30.19 in 5.0 mi NNW 15.0 mph - N/A   Haze
12:52 PM 48.0 °F - 39.9 °F 74% 30.18 in 6.0 mi North 11.5 mph - N/A   Haze
12:56 PM 48.2 °F - 39.2 °F 71% 30.18 in 6.0 mi North 10.4 mph - N/A   Haze
1:25 PM 51.8 °F - 37.4 °F 58% 30.17 in 7.0 mi North 9.2 mph - N/A   Scattered Clouds
1:52 PM 50.0 °F - 37.0 °F 61% 30.15 in 7.0 mi North 9.2 mph - N/A   Scattered Clouds
2:52 PM 51.1 °F - 36.0 °F 56% 30.14 in 7.0 mi NNW 6.9 mph - N/A   Partly Cloudy
3:52 PM 51.1 °F - 36.0 °F 56% 30.12 in 7.0 mi North 5.8 mph - N/A   Partly Cloudy
4:52 PM 48.9 °F - 35.1 °F 59% 30.12 in 8.0 mi Variable 5.8 mph - N/A   Partly Cloudy
5:52 PM 45.0 °F 40.1 °F 35.1 °F 68% 30.12 in 7.0 mi North 9.2 mph - N/A   Partly Cloudy
6:52 PM 39.9 °F 33.9 °F 33.1 °F 77% 30.12 in 8.0 mi North 9.2 mph - N/A   Partly Cloudy
7:52 PM 37.9 °F 33.5 °F 33.1 °F 83% 30.10 in 8.0 mi NNE 5.8 mph - N/A   Clear
8:52 PM 37.0 °F 31.0 °F 33.1 °F 86% 30.12 in 8.0 mi North 8.1 mph - N/A   Scattered Clouds
9:52 PM 37.9 °F 32.7 °F 34.0 °F 86% 30.12 in 9.0 mi North 6.9 mph - N/A   Clear
10:52 PM 37.9 °F 35.5 °F 33.1 °F 83% 30.10 in 9.0 mi NNE 3.5 mph - N/A   Clear
11:52 PM 37.9 °F 30.9 °F 30.9 °F 76% 30.12 in 9.0 mi North 10.4 mph - N/A   Clear